Probability
0 0 0 0 0 0 0 0 0 0 0 0 0 0 0 0 0 0 0 0 0 0 0 0 0 0 0 0 0 0 0 0 0 0 0 0 0 0 0 0 0 0 0
0 0 0 0 0 0 0 0 0 0 0 0 0 0 0 0 0 0 0 0 0 0 0 0 0 0 0 0 0 0 0 0 0 0 0 0 0 0 0 0 0 0 0
1 0 0 0 0 0 0 0 0 0 0 0 0 0 0 0 0 0 0 0 0 0 0 0 0 0 0 0 0 0 0 0 0 0 0 0 0 0 0 0 1 1 1
2 1 1 0 0 0 0 0 0 0 0 0 0 0 0 0 0 0 0 0 0 0 0 0 0 0 0 0 0 0 0 0 0 0 0 0 0 0 1 1 1 2 2
3 2 2 1 0 0 0 0 0 0 0 0 0 0 0 0 0 0 0 0 0 0 0 0 0 0 0 0 0 0 0 0 0 0 0 0 0 0 1 1 1 1 2
3 3 2 1 0 0 0 0 0 0 0 0 0 0 0 0 0 0 0 0 0 0 0 0 0 0 0 0 0 0 0 0 0 0 0 0 0 0 0 0 0 1 2
3 4 3 2 1 0 0 0 0 0 0 0 0 0 0 0 0 0 0 0 0 0 0 0 0 0 0 0 0 0 0 0 0 0 0 0 0 0 0 0 1 1 1
4 4 3 3 2 1 1 1 1 1 0 0 0 0 0 0 0 0 0 0 0 0 0 0 0 0 0 0 0 0 0 0 0 0 0 0 0 0 0 0 1 1 1
3 3 3 3 3 3 2 2 2 1 0 0 0 0 0 0 0 0 0 0 0 0 0 0 0 0 0 0 0 0 0 0 0 0 0 0 0 0 0 0 1 1 0
3 3 3 3 3 3 3 3 3 1 0 0 0 0 0 0 0 0 0 0 0 0 0 0 0 0 0 0 0 0 0 0 0 0 0 0 0 0 0 0 0 0 0
2 2 2 2 2 2 2 2 2 1 0 0 0 0 0 0 0 0 0 0 0 0 0 1 0 0 0 0 0 0 0 0 0 0 0 0 0 0 0 0 0 0 0
1 1 1 1 1 1 1 1 1 0 0 0 0 0 0 0 0 0 0 0 0 0 0 0 0 0 0 0 0 0 0 0 0 0 0 0 0 0 0 0 0 0 0
0 0 0 0 0 0 0 0 0 0 0 0 0 0 0 0 0 0 0 0 0 0 0 0 0 0 0 0 0 0 0 0 0 0 0 0 0 0 0 0 0 0 0
0 0 0 0 0 0 0 0 0 0 0 0 0 0 0 0 0 0 0 0 0 0 0 0 0 0 0 0 0 0 0 0 0 0 0 0 0 0 0 0 0 0 0
0 0 0 0 0 0 0 0 0 0 0 0 0 0 0 0 0 0 0 0 0 0 0 0 0 0 0 0 0 0 0 0 0 0 0 0 0 0 0 0 0 0 0
0 0 0 0 0 0 1 0 0 0 0 0 0 0 0 0 0 0 0 0 0 0 0 0 0 0 0 0 0 0 0 0 0 0 0 0 0 0 0 0 0 0 0
0 0 0 0 0 0 0 0 0 0 0 0 0 0 0 0 0 0 0 0 0 0 0 0 0 0 0 0 0 0 0 0 0 0 0 0 0 0 0 0 0 0 0
0 0 0 0 0 0 0 0 0 0 0 0 0 0 0 0 0 0 0 0 0 0 0 0 0 0 0 0 0 0 0 0 0 0 0 0 0 0 0 0 0 0 0
0 0 0 0 0 0 0 0 0 0 0 0 0 0 0 0 0 0 0 0 0 0 0 0 0 0 0 0 0 0 0 0 0 0 0 0 0 0 0 0 0 0 0
0 0 0 0 0 0 0 0 0 0 0 0 0 0 0 0 0 0 0 0 0 0 0 0 0 0 0 0 0 0 0 0 0 0 0 0 0 0 0 0 0 0 0
0 0 0 0 0 0 0 0 0 0 0 0 0 0 0 0 0 0 0 0 0 0 0 0 0 0 0 0 0 0 0 0 0 0 0 0 0 0 0 0 0 0 0
0 0 0 0 0 0 0 0 0 0 0 0 0 0 0 0 0 0 0 0 1 1 1 1 0 0 0 0 0 0 0 0 0 0 0 0 0 0 0 0 0 0 0
0 0 0 0 0 0 0 0 0 0 0 0 0 0 0 0 0 0 0 0 1 2 3 2 1 0 0 1 1 1 0 0 0 0 0 0 0 0 0 0 0 0 0
0 0 0 0 0 0 0 0 0 0 0 0 0 0 0 0 0 0 0 0 1 2 3 3 2 1 1 1 2 1 0 0 0 0 0 0 0 0 0 1 0 0 0
0 0 0 0 0 0 0 0 0 0 0 0 0 0 0 0 0 0 0 0 1 2 3 3 3 2 1 1 1 1 0 0 0 0 0 0 0 0 0 0 0 0 0
0 0 0 0 0 0 0 0 0 0 0 0 0 0 0 0 0 0 0 0 1 2 3 3 3 1 0 0 0 0 0 0 0 0 0 0 0 0 0 0 0 0 0
Wind_Speed
5 4 5 4 4 4 3 3 3 3 3 4 4 3 3 3 3 3 2 2 2 2 2 2 2 1 1 1 1 1 2 2 2 1 1 1 2 2 1 2 2 2 1
4 4 4 4 4 4 4 4 4 3 3 3 4 4 3 3 3 3 3 3 2 2 2 2 2 2 2 1 1 2 1 2 2 2 1 2 2 2 2 2 2 2 2
4 4 4 4 4 4 4 4 3 3 3 3 3 3 3 3 3 3 3 3 3 2 2 3 2 3 3 2 3 2 2 2 2 3 2 1 2 2 3 3 3 2 3
5 5 4 4 4 4 4 4 4 4 4 4 3 3 3 3 3 3 3 3 3 2 3 3 3 3 3 3 3 3 2 2 3 3 2 2 2 2 3 3 3 2 3
5 5 4 4 4 4 4 4 4 4 4 4 4 4 4 3 3 3 4 4 4 3 3 3 2 1 2 2 2 2 3 3 3 3 3 3 3 3 3 3 3 3 3
4 4 4 3 4 4 4 4 4 4 4 4 4 4 4 3 2 2 4 4 4 4 4 4 3 5 4 4 4 4 4 4 3 3 3 4 4 4 3 3 4 4 3
5 4 4 4 4 4 4 4 4 5 5 5 5 5 5 4 4 5 6 5 5 5 5 4 3 3 5 5 6 7 6 6 6 6 6 5 5 4 4 5 5 5 5
4 5 5 5 5 5 5 5 5 5 5 5 5 6 5 5 6 6 6 8 6 6 6 5 5 5 5 5 5 6 6 5 6 6 6 5 5 4 4 5 5 5 5
4 5 5 5 5 5 5 6 5 5 5 6 6 6 7 6 7 8 7 7 6 7 7 7 7 7 3 4 6 6 6 4 4 4 5 5 4 4 4 4 4 5 5
5 5 5 5 5 6 6 6 5 5 6 5 6 6 7 7 6 8 9 6 7 6 6 6 6 6 4 6 7 6 6 5 4 5 6 6 6 5 6 7 5 5 5
5 5 5 6 6 6 5 5 5 5 6 6 6 6 7 7 6 8 9 7 6 6 5 5 4 7 7 8 8 7 5 5 5 5 5 4 4 4 4 5 5 5 5
5 5 5 6 5 5 5 5 5 5 5 5 6 6 5 5 5 6 9 9 7 7 6 5 4 7 8 9 8 5 4 5 5 4 4 4 4 4 4 4 5 5 5
5 5 5 6 5 5 5 5 5 5 5 5 5 5 4 4 4 6 9 9 8 6 5 4 3 5 7 7 7 6 5 5 5 5 5 4 4 4 4 3 4 4 5
6 6 5 5 5 5 4 4 5 5 5 5 5 5 4 4 4 4 4 5 7 6 5 3 5 5 5 5 5 6 6 5 5 5 5 4 3 4 4 4 4 3 4
6 5 5 5 5 5 5 4 5 5 4 5 4 4 4 5 4 4 4 4 4 5 4 4 4 4 5 5 5 5 5 5 5 5 5 5 4 4 4 4 4 4 4
5 5 4 4 4 4 4 4 3 5 4 4 5 5 4 5 5 5 6 7 6 6 5 5 5 5 5 5 5 5 5 5 6 6 6 5 5 5 5 4 4 5 5
6 5 4 4 4 4 4 5 4 4 5 6 6 6 6 5 5 5 6 6 6 7 6 6 6 6 6 6 6 6 6 6 5 6 6 6 6 5 5 5 5 5 6
6 5 4 4 4 4 5 5 5 4 4 4 5 6 7 7 6 6 5 4 4 6 6 6 6 6 6 6 6 6 6 5 6 6 6 6 6 6 6 6 6 7 6
5 4 4 4 4 4 4 4 4 5 5 4 4 4 5 6 6 6 5 5 5 6 6 6 6 6 6 6 6 6 6 6 6 6 6 6 6 6 6 6 6 7 7
5 5 5 4 4 4 4 5 4 5 5 5 5 4 3 3 4 4 5 5 5 6 6 6 6 7 6 6 6 6 6 6 7 7 6 6 6 6 7 8 7 7 7
4 4 6 5 5 5 4 5 5 5 5 5 5 4 4 5 5 6 5 5 6 6 6 6 6 7 6 6 6 7 8 7 7 7 7 7 7 7 6 7 7 7 6
4 4 4 4 5 5 5 5 5 5 5 6 5 4 5 6 5 5 6 6 6 6 6 6 6 6 6 6 7 7 7 8 7 7 7 7 7 7 7 7 7 7 7
4 4 4 4 4 5 5 5 5 5 6 6 5 5 5 5 5 6 6 6 6 6 6 6 6 6 6 6 7 7 8 8 7 7 7 7 7 7 7 8 9 8 8
4 4 4 4 4 4 5 5 5 5 6 6 5 5 5 5 6 6 6 5 5 6 6 6 6 8 9 8 6 7 7 7 7 7 10 9 8 7 7 8 8 9 8
4 4 4 4 4 5 5 5 5 5 5 5 5 5 5 5 5 5 5 5 6 6 7 7 6 7 9 10 9 7 7 7 8 7 8 8 9 9 8 9 8 8 8
4 4 4 4 5 5 5 5 5 6 6 5 5 5 5 5 5 5 5 5 5 6 6 6 8 9 9 9 10 9 8 8 9 10 8 7 8 8 8 7 9 8 9
Wind_Direction
190 188 187 189 188 191 195 191 191 190 187 187 188 189 180 180 183 177 190 181 200 177 183 200 201 211 214 209 229 253 269 273 267 252 220 208 227 250 199 264 268 264 182
188 188 192 187 191 198 196 196 196 190 188 195 186 188 187 186 182 186 190 198 213 208 196 199 199 188 215 232 229 236 246 259 256 262 235 234 249 257 264 262 266 273 278
182 188 193 195 197 202 202 196 201 196 193 194 190 195 188 191 194 204 205 208 214 219 220 222 223 214 214 209 225 233 236 240 246 245 249 251 257 253 258 259 260 268 270
180 190 199 202 202 204 206 202 205 202 201 201 199 202 199 200 207 213 217 217 216 219 223 232 238 238 233 226 224 231 234 233 234 244 247 239 244 249 255 256 261 250 263
187 194 202 202 202 206 203 204 205 206 212 209 211 210 211 215 219 225 220 225 221 221 223 224 226 260 316 282 266 246 234 235 234 245 249 250 246 239 249 255 265 270 265
194 197 197 199 197 205 205 203 204 204 214 215 220 221 218 220 172 241 256 232 230 227 228 228 206 202 200 216 237 257 270 256 251 248 254 254 261 256 263 265 267 266 270
201 201 196 198 197 204 201 201 207 209 210 216 222 224 225 207 180 209 241 250 240 239 237 235 234 222 217 220 207 213 226 237 253 266 267 269 272 270 262 259 261 272 280
208 209 202 203 202 204 206 208 214 218 212 219 225 227 232 216 194 212 226 244 243 238 239 239 237 234 222 237 236 234 236 226 230 243 262 273 281 282 269 270 274 272 276
217 220 211 208 208 210 215 218 221 222 222 224 227 232 231 222 204 212 221 239 240 238 236 237 241 242 194 232 245 243 243 235 206 232 279 292 305 288 274 257 251 253 262
225 231 224 216 213 216 224 226 221 223 228 230 232 236 237 239 206 208 221 235 238 239 237 232 229 246 210 215 242 246 249 248 237 221 228 228 238 226 227 243 249 257 266
230 235 230 221 221 223 229 230 228 228 232 235 236 237 240 242 217 207 217 237 238 240 237 232 218 202 216 221 247 255 258 270 255 247 245 242 240 240 232 239 248 256 261
226 229 229 225 222 222 226 234 234 229 230 235 237 236 237 233 233 215 215 233 255 246 244 243 225 191 212 222 234 251 256 256 250 245 242 240 241 241 241 241 244 248 259
225 231 232 227 222 225 225 226 228 227 231 235 237 238 235 233 222 221 221 226 240 248 251 262 245 206 214 222 226 231 229 234 237 240 244 245 247 248 248 245 246 246 253
229 232 230 224 223 224 227 228 226 226 228 231 235 239 239 236 237 228 225 220 219 233 243 229 215 209 223 236 221 218 228 234 241 243 247 250 248 240 237 239 240 237 242
234 236 233 225 226 227 226 234 233 234 240 241 240 242 241 243 248 257 247 241 229 220 221 223 221 218 222 225 226 226 228 227 231 237 240 242 240 240 239 239 243 246 249
233 235 231 226 222 226 231 232 228 237 237 241 256 260 257 261 267 246 243 244 235 217 216 223 225 227 229 231 232 230 229 232 234 232 233 236 238 237 238 235 236 241 247
235 235 227 229 228 228 231 234 235 227 224 232 238 246 257 269 263 249 244 237 221 207 221 230 231 229 231 233 233 234 235 236 239 235 234 234 235 237 237 236 234 237 243
237 235 229 227 230 231 234 238 241 243 242 241 230 231 244 251 253 254 246 231 218 215 230 235 237 234 233 235 237 238 238 235 236 236 236 235 232 234 236 237 236 237 242
236 233 228 231 231 233 235 239 243 246 249 251 252 236 230 238 239 238 221 230 230 230 231 236 241 241 240 240 240 239 238 236 237 238 236 236 234 233 234 236 238 237 240
234 228 229 233 234 234 235 237 241 246 251 254 254 256 243 236 238 231 225 234 241 243 242 240 240 243 242 241 241 239 239 238 237 238 237 235 234 234 236 235 233 233 234
230 220 218 230 235 237 238 241 242 245 250 254 256 254 250 246 246 244 240 239 242 247 249 248 245 242 240 240 239 237 238 239 238 239 238 235 232 232 235 235 232 231 234
229 228 228 233 235 236 240 243 244 247 250 254 258 243 229 243 250 251 250 251 250 249 251 250 246 243 239 237 237 239 239 239 238 236 238 237 233 231 231 232 230 227 228
229 232 235 236 237 236 238 242 243 247 252 255 256 252 242 247 251 253 255 256 257 256 253 251 251 250 249 245 241 240 240 240 239 236 238 238 235 231 230 231 230 227 228
226 229 235 240 238 239 241 245 246 247 250 253 253 252 252 252 255 258 260 261 260 260 257 255 254 255 256 256 247 244 247 249 247 241 239 239 238 235 231 232 229 225 227
232 235 239 241 242 242 244 248 251 252 252 253 253 253 255 255 257 259 260 259 261 262 262 260 257 256 257 256 250 246 245 244 246 249 243 239 237 236 234 231 228 227 226
240 242 243 243 245 246 247 249 251 254 255 255 254 252 252 254 257 259 260 261 262 264 264 261 259 260 261 258 255 251 244 239 240 246 246 239 237 235 232 230 229 227 224